sat.trackr.live / text

‹ back to catalog

ONEWEB-0057

NORAD 45160 · 2020-008AF

PAYLOAD ACTIVE UNKNOWN

§ Identity

Operator
Country
UK
Launch date
2020-02-06
Launch site
TYMSC
Launch vehicle
Mass (kg)
RCS (m²)

Purposes: comms

External: N2YO · Heavens-Above · Gunter

§ Orbital elements

Epoch: 2026-05-25T03:56:09.401280Z

Period
109.89 min
Inclination
87.8856°
Eccentricity
0.0002354
Mean motion
13.10373227 rev/d
Perigee alt
1,219.9 km
Apogee alt
1,223.5 km
Semi-major
7,599.9 km
B*
1.7570e-3
RAAN
40.8556°
Arg perigee
81.5068°
Mean anomaly
278.6326°
Rev number
30,533

§ Raw data

ONEWEB-00571 45160U 20008AF  26145.16399770  .00000626  00000+0  17570-2 0  99912 45160  87.8856  40.8556 0002354  81.5068 278.6326 13.10373227305337

JSON: /api/v1/satellites/45160 · /tle

For live sub-satellite position, see the globe view (requires WebGL).

§ Visibility from observer

Set your observer location to see the next 7 days of passes ≥ 10°. The values pass through the URL so the page stays shareable.

No JS? Fill the form by hand. The geolocation button needs JavaScript.